Regional Weather Roundup
Issued by NWS Jackson, KY

Home | Current Version | Previous Version | Graphics & Text | Print | Product List | Glossary On
Versions: 1 2 3 4 5 6 7 8 9 10 11 12 13 14 15 16 17 18 19 20 21 22 23 24 25 26 27 28 29 30 31 32 33 34 35 36 37 38 39 40 41 42 43 44 45 46 47 48 49 50
000
ASUS43 KJKL 270710
RWRJKL

EAST KENTUCKY HOURLY WEATHER ROUNDUP
NATIONAL WEATHER SERVICE JACKSON KY
200 AM EST TUE JAN 27 2015

NOTE: "FAIR" INDICATES FEW OR NO CLOUDS BELOW 12,000 FEET WITH
NO SIGNIFICANT WEATHER AND/OR OBSTRUCTIONS TO VISIBILITY.

* THESE REPORTS ARE NOT UNDER NWS QUALITY CONTROL AND MAY NOT
  REPORT WEATHER SUCH AS PRECIPITATION AND FOG.

KYZ079-080-083-085-087-088-110-112-115-119-120-270800
...EASTERN KENTUCKY...

CITY           SKY/WX    TMP DP  RH WIND       PRES   REMARKS
JACKSON        CLOUDY    26  22  84 CALM      29.87F
LONDON         CLOUDY    30  23  75 W3        29.88F
SOMERSET*      CLOUDY    30  28  93 CALM      29.91F
MONTICELLO*    MIX PCPN  30  29  96 CALM      29.93F FOG
MIDDLESBORO*   CLOUDY    31  26  81 CALM      29.89F
HARLAN APT*    CLOUDY    30  25  80 CALM      29.87F
HAZARD APT*    CLOUDY    28  25  86 CALM      29.88F
BLACK MTN*       N/A     18  18 100 N5          N/A  WCI  11
PIKEVILLE APT* CLOUDY    25  19  80 CALM      29.87F
BIG SANDY*     CLOUDY    26  19  75 CALM      29.88F
MOREHEAD APT*  CLOUDY    27  23  86 CALM      29.92F
$$

KYZ035-036-041-042-044-050-067-078-099-270800
...CENTRAL KENTUCKY...

CITY           SKY/WX    TMP DP  RH WIND       PRES   REMARKS
MT STERLING*   CLOUDY    28  27  93 CALM      29.91S
FLEMING/MASON* CLOUDY    21  17  87 E5        29.92F WCI  14
DANVILLE*      CLOUDY    30  28  93 CALM      29.90F FOG
RICHMOND*      CLOUDY    28  25  86 CALM      29.89F
LEXINGTON      FLURRIES  28  23  81 CALM      29.90F
FRANKFORT      LGT SNOW  28  24  85 CALM      29.89F FOG
$$

KYZ091>093-OHZ055-061-077-WVZ005-015-034-035-042-270800
...SOUTHERN OHIO/WEST VIRGINIA...

CITY           SKY/WX    TMP DP  RH WIND       PRES   REMARKS
COVINGTON      CLOUDY    23  15  71 E5        29.90F WCI  17
COLUMBUS       CLOUDY    11   7  84 N6        29.93F WCI   1
DAYTON         CLOUDY    16  12  84 CALM      29.92F
WILMINGTON     CLOUDY    15  10  80 NE5       29.90F WCI   8
HUNTINGTON     CLOUDY    21  17  84 N6        29.91F WCI  13
CHARLESTON     MOCLDY    22  18  85 NW5       29.90R WCI  16
PINEVILLE*     CLOUDY    27  22  82 MISG      29.88S
BECKLEY        LGT SNOW  20  14  77 W8        29.78S WCI  10
BLUEFIELD      FLURRIES  22  16  78 NW13G18   29.75S WCI  10
$$

VAZ002-007-008-TNZ017-027-036-066-071-270800
...SOUTHWEST VIRGINIA/EAST TENNESSEE...

CITY           SKY/WX    TMP DP  RH WIND       PRES   REMARKS
WISE*          CLOUDY    25  23  93 W8        29.80F WCI  16
ABINGDON*      CLOUDY    28  20  72 NW8       29.82S WCI  20
BRISTOL        CLOUDY    30  22  72 W8        29.85F WCI  22
KNOXVILLE      FLURRIES  30  29  96 S3        29.90F
OAK RIDGE      CLOUDY    32  28  85 SW3       29.91F
CROSSVILLE     CLOUDY    29  26  89 W3        29.86F
NASHVILLE      CLOUDY    34  31  88 SE3       29.92F
$$

...KEY TO REMARKS...
VSB - VISIBILITY IN MILES
WCI - WIND CHILL INDEX
HX  - HEAT INDEX

$$


USA.gov is the U.S. government's official web portal to all federal, state and local government web resources and services.